When you browse on this site, cookies collect data to enhance your experience and personalize the content and advertising you see.
Visit our Privacy Policy to learn more. By continuing to use the site, you agree to this use of cookies and data.
  • în România
  • Lista ţărilor
  • Pe 7 zile
  • Temperatura apei
  • Meteo pe hartă
  • Widget-uri
  • user-avatar
    Intrare

    Meteo pe oră la Guadalahara

    Astăzi, 26 Mai, Marţi

    Timp Temperatura Precipitaţii Vânt Presiune Umiditate
    00:00 +17°C° 0 mm 3 m/s 707 mmHg 83%
    01:00 +16°C° 0 mm 3 m/s 707 mmHg 83%
    02:00 +16°C° 0 mm 3 m/s 706 mmHg 82%
    03:00 +16°C° 0 mm 3 m/s 706 mmHg 82%
    04:00 +16°C° 0 mm 3 m/s 706 mmHg 82%
    05:00 +16°C° 0 mm 3 m/s 706 mmHg 82%
    06:00 +17°C° 0 mm 3 m/s 707 mmHg 81%
    07:00 +18°C° 0 mm 3 m/s 707 mmHg 74%
    08:00 +20°C° 0 mm 3 m/s 707 mmHg 67%
    09:00 +23°C° 0 mm 2 m/s 707 mmHg 61%
    10:00 +24°C° 0 mm 2 m/s 707 mmHg 56%
    11:00 +25°C° 0 mm 2 m/s 707 mmHg 51%
    12:00 +27°C° 0 mm 1 m/s 707 mmHg 46%
    13:00 +27°C° 0.8 mm 2 m/s 707 mmHg 47%
    14:00 +27°C° 0.8 mm 2 m/s 707 mmHg 48%
    15:00 +26°C° 0.8 mm 2 m/s 706 mmHg 49%
    16:00 +26°C° 0.4 mm 3 m/s 706 mmHg 54%
    17:00 +25°C° 0.4 mm 4 m/s 706 mmHg 59%
    18:00 +23°C° 0.4 mm 4 m/s 705 mmHg 64%
    19:00 +22°C° 0 mm 4 m/s 706 mmHg 68%
    20:00 +20°C° 0 mm 4 m/s 706 mmHg 72%
    21:00 +19°C° 0 mm 3 m/s 706 mmHg 76%
    22:00 +18°C° 0 mm 3 m/s 706 mmHg 77%
    23:00 +18°C° 0 mm 2 m/s 706 mmHg 79%

    Mâine, 27 Mai, Miercuri

    Timp Temperatura Precipitaţii Vânt Presiune Umiditate
    00:00 +17°C° 0 mm 2 m/s 706 mmHg 80%
    01:00 +17°C° 0 mm 2 m/s 706 mmHg 81%
    02:00 +17°C° 0 mm 2 m/s 706 mmHg 82%
    03:00 +18°C° 0 mm 1 m/s 706 mmHg 82%
    04:00 +18°C° 0 mm 1 m/s 706 mmHg 81%
    05:00 +18°C° 0 mm 1 m/s 706 mmHg 80%
    06:00 +18°C° 0 mm 1 m/s 706 mmHg 79%
    07:00 +19°C° 0 mm 2 m/s 706 mmHg 68%
    08:00 +21°C° 0 mm 2 m/s 707 mmHg 57%
    09:00 +24°C° 0 mm 3 m/s 707 mmHg 46%
    10:00 +25°C° 0 mm 3 m/s 707 mmHg 42%
    11:00 +26°C° 0 mm 3 m/s 707 mmHg 37%
    12:00 +27°C° 0 mm 4 m/s 707 mmHg 32%
    13:00 +28°C° 0 mm 4 m/s 706 mmHg 32%
    14:00 +28°C° 0 mm 4 m/s 706 mmHg 32%
    15:00 +29°C° 0 mm 4 m/s 706 mmHg 32%
    16:00 +28°C° 0 mm 4 m/s 706 mmHg 36%
    17:00 +27°C° 0 mm 4 m/s 706 mmHg 40%
    18:00 +26°C° 0 mm 4 m/s 706 mmHg 45%
    19:00 +24°C° 0 mm 3 m/s 706 mmHg 50%
    20:00 +21°C° 0 mm 3 m/s 706 mmHg 55%
    21:00 +19°C° 0 mm 2 m/s 706 mmHg 61%
    22:00 +19°C° 0 mm 1 m/s 706 mmHg 64%
    23:00 +19°C° 0 mm 1 m/s 706 mmHg 67%

    Poimâine, 28 Mai, Joi

    Timp Temperatura Precipitaţii Vânt Presiune Umiditate
    00:00 +16°C° 0 mm 0 m/s 706 mmHg 70%
    01:00 +18°C° 0 mm 1 m/s 706 mmHg 71%
    02:00 +16°C° 0 mm 1 m/s 706 mmHg 72%
    03:00 +16°C° 0 mm 1 m/s 706 mmHg 73%
    04:00 +16°C° 0 mm 1 m/s 706 mmHg 73%
    05:00 +16°C° 0 mm 1 m/s 706 mmHg 72%
    06:00 +16°C° 0 mm 1 m/s 706 mmHg 71%
    07:00 +19°C° 0 mm 1 m/s 706 mmHg 65%
    08:00 +21°C° 0 mm 1 m/s 706 mmHg 58%
    09:00 +23°C° 0 mm 1 m/s 706 mmHg 52%
    10:00 +24°C° 0 mm 2 m/s 706 mmHg 45%
    11:00 +25°C° 0 mm 2 m/s 706 mmHg 38%
    12:00 +27°C° 0 mm 3 m/s 706 mmHg 31%
    13:00 +27°C° 0 mm 3 m/s 705 mmHg 29%
    14:00 +28°C° 0 mm 3 m/s 705 mmHg 28%
    15:00 +28°C° 0 mm 3 m/s 705 mmHg 27%
    16:00 +28°C° 0 mm 3 m/s 704 mmHg 31%
    17:00 +27°C° 0 mm 3 m/s 704 mmHg 36%
    18:00 +26°C° 0 mm 3 m/s 704 mmHg 40%
    19:00 +24°C° 0 mm 3 m/s 704 mmHg 46%
    20:00 +21°C° 0 mm 3 m/s 704 mmHg 51%
    21:00 +19°C° 0 mm 2 m/s 704 mmHg 57%
    22:00 +18°C° 0 mm 2 m/s 704 mmHg 59%
    23:00 +18°C° 0 mm 1 m/s 704 mmHg 61%

    29 Mai, Vineri

    Timp Temperatura Precipitaţii Vânt Presiune Umiditate
    00:00 +16°C° 0 mm 1 m/s 704 mmHg 63%
    01:00 +16°C° 0 mm 1 m/s 703 mmHg 63%
    02:00 +14°C° 0 mm 0 m/s 703 mmHg 64%
    03:00 +14°C° 0 mm 0 m/s 703 mmHg 65%
    04:00 +15°C° 0 mm 0 m/s 703 mmHg 64%
    05:00 +15°C° 0 mm 0 m/s 703 mmHg 64%
    06:00 +16°C° 0 mm 0 m/s 703 mmHg 63%
    07:00 +19°C° 0 mm 1 m/s 703 mmHg 55%
    08:00 +21°C° 0 mm 1 m/s 703 mmHg 48%
    09:00 +23°C° 0 mm 1 m/s 703 mmHg 40%
    10:00 +25°C° 0 mm 1 m/s 703 mmHg 38%
    11:00 +27°C° 0 mm 1 m/s 703 mmHg 36%
    12:00 +28°C° 0 mm 1 m/s 703 mmHg 33%
    13:00 +29°C° 0 mm 1 m/s 702 mmHg 32%
    14:00 +29°C° 0 mm 1 m/s 702 mmHg 30%
    15:00 +30°C° 0 mm 1 m/s 702 mmHg 29%
    16:00 +29°C° 0 mm 1 m/s 701 mmHg 31%
    17:00 +29°C° 0 mm 1 m/s 701 mmHg 33%
    18:00 +29°C° 0 mm 1 m/s 701 mmHg 35%
    19:00 +27°C° 0 mm 1 m/s 701 mmHg 37%
    20:00 +25°C° 0 mm 1 m/s 701 mmHg 39%
    21:00 +24°C° 0 mm 1 m/s 701 mmHg 42%
    22:00 +23°C° 0 mm 1 m/s 701 mmHg 43%
    23:00 +22°C° 0 mm 1 m/s 701 mmHg 44%

    30 Mai, Sâmbătă

    Timp Temperatura Precipitaţii Vânt Presiune Umiditate
    00:00 +19°C° 0 mm 2 m/s 700 mmHg 45%
    01:00 +20°C° 0 mm 1 m/s 700 mmHg 47%
    02:00 +19°C° 0 mm 1 m/s 700 mmHg 49%
    03:00 +18°C° 0 mm 1 m/s 700 mmHg 51%
    04:00 +18°C° 0 mm 1 m/s 700 mmHg 52%
    05:00 +19°C° 0 mm 1 m/s 700 mmHg 53%
    06:00 +17°C° 0 mm 0 m/s 701 mmHg 54%
    07:00 +21°C° 0 mm 1 m/s 701 mmHg 47%
    08:00 +23°C° 0 mm 1 m/s 701 mmHg 41%
    09:00 +25°C° 0 mm 1 m/s 701 mmHg 35%
    10:00 +27°C° 0 mm 1 m/s 701 mmHg 33%
    11:00 +28°C° 0 mm 1 m/s 701 mmHg 31%
    12:00 +29°C° 0 mm 1 m/s 701 mmHg 29%
    13:00 +30°C° 0 mm 1 m/s 701 mmHg 28%
    14:00 +30°C° 0 mm 1 m/s 701 mmHg 26%
    15:00 +31°C° 0 mm 1 m/s 700 mmHg 24%
    16:00 +31°C° 0 mm 1 m/s 700 mmHg 26%
    17:00 +30°C° 0 mm 1 m/s 700 mmHg 28%
    18:00 +28°C° 0 mm 0 m/s 700 mmHg 30%
    19:00 +28°C° 0 mm 1 m/s 700 mmHg 32%
    20:00 +26°C° 0 mm 1 m/s 700 mmHg 34%
    21:00 +24°C° 0 mm 1 m/s 700 mmHg 36%
    22:00 +23°C° 0 mm 2 m/s 700 mmHg 39%
    23:00 +21°C° 0 mm 2 m/s 700 mmHg 42%

    31 Mai, Duminică

    Timp Temperatura Precipitaţii Vânt Presiune Umiditate
    00:00 +19°C° 0 mm 3 m/s 700 mmHg 46%
    01:00 +19°C° 0 mm 2 m/s 700 mmHg 47%
    02:00 +18°C° 0 mm 2 m/s 700 mmHg 49%
    03:00 +18°C° 0 mm 1 m/s 700 mmHg 51%
    04:00 +19°C° 0 mm 1 m/s 700 mmHg 51%
    05:00 +19°C° 0 mm 1 m/s 700 mmHg 52%
    06:00 +19°C° 0 mm 1 m/s 700 mmHg 52%
    07:00 +21°C° 0 mm 1 m/s 701 mmHg 45%
    08:00 +23°C° 0 mm 2 m/s 701 mmHg 38%
    09:00 +25°C° 0 mm 2 m/s 701 mmHg 31%
    10:00 +26°C° 0 mm 2 m/s 701 mmHg 30%
    11:00 +28°C° 0 mm 2 m/s 701 mmHg 28%
    12:00 +29°C° 0 mm 3 m/s 701 mmHg 26%
    13:00 +30°C° 0 mm 3 m/s 701 mmHg 26%
    14:00 +30°C° 0 mm 2 m/s 700 mmHg 25%
    15:00 +31°C° 0 mm 2 m/s 700 mmHg 25%
    16:00 +30°C° 0 mm 2 m/s 700 mmHg 27%
    17:00 +30°C° 0 mm 2 m/s 699 mmHg 30%
    18:00 +29°C° 0 mm 2 m/s 699 mmHg 33%
    19:00 +27°C° 0 mm 2 m/s 699 mmHg 35%
    20:00 +25°C° 0 mm 2 m/s 699 mmHg 37%
    21:00 +23°C° 0 mm 2 m/s 699 mmHg 39%
    22:00 +21°C° 0 mm 2 m/s 699 mmHg 41%
    23:00 +20°C° 0 mm 2 m/s 699 mmHg 43%
    Arată mai mult